sat.trackr.live / text

‹ back to catalog

THEMIS D

NORAD 30797 · 2007-004D

PAYLOAD ACTIVE UNKNOWN

§ Identity

Operator
Country
US
Launch date
2007-02-17
Launch site
AFETR
Launch vehicle
Mass (kg)
RCS (m²)
0.50

External: N2YO · Heavens-Above · Gunter

§ Orbital elements

Epoch: 2026-05-24T06:09:49.814784Z

Period
1,644.04 min
Inclination
7.4697°
Eccentricity
0.8336217
Mean motion
0.87589249 rev/d
Perigee alt
1,299.0 km
Apogee alt
78,229.8 km
Semi-major
46,142.5 km
B*
0.0000e+0
RAAN
81.4801°
Arg perigee
227.3774°
Mean anomaly
295.2009°
Rev number
4,086

§ Raw data

THEMIS D1 30797U 07004D   26144.25682656 -.00000125  00000+0  00000+0 0  99912 30797   7.4697  81.4801 8336217 227.3774 295.2009  0.87589249 40862

JSON: /api/v1/satellites/30797 · /tle

For live sub-satellite position, see the globe view (requires WebGL).

§ Visibility from observer

Set your observer location to see the next 7 days of passes ≥ 10°. The values pass through the URL so the page stays shareable.

No JS? Fill the form by hand. The geolocation button needs JavaScript.